This is the latest recevied weather packets stored in our database for station/object SV9TNF-56. If no packets are shown the sender has not sent any weather packets the latest 10 day(s).
| Time | Temp. | Humidity | Pressure | Rain* | Wind** | Luminosity | Snow |
|---|---|---|---|---|---|---|---|
| 1788617565 | 27.22° C | 42% | 1013.6 hPa | 0 mm | 16.99 m/s, 216° | - | - |
| 1788617296 | 27.22° C | 43% | 1013.2 hPa | 0 mm | 10.28 m/s, 252° | - | - |
| 1788616965 | 27.22° C | 44% | 1013.2 hPa | 0 mm | 8.05 m/s, 152° | - | - |
| 1788616665 | 26.67° C | 45% | 1013.2 hPa | 0 mm | 22.8 m/s, 245° | - | - |
| 1788616364 | 26.67° C | 46% | 1013.2 hPa | 0 mm | 12.52 m/s, 66° | - | - |
| 1788616064 | 27.22° C | 47% | 1013.2 hPa | 0 mm | 4.47 m/s, 162° | - | - |
| 1788615764 | 26.67° C | 48% | 1013.2 hPa | 0 mm | 13.86 m/s, 238° | - | - |
| 1788615464 | 27.22° C | 48% | 1013.6 hPa | 0 mm | 18.33 m/s, 294° | - | - |
| 1788615164 | 26.67° C | 49% | 1013.2 hPa | 0 mm | 15.2 m/s, 196° | - | - |
| 1788614864 | 26.67° C | 48% | 1013.2 hPa | 0 mm | 25.93 m/s, 257° | - | - |
| 1788614564 | 26.11° C | 49% | 1012.9 hPa | 0 mm | 15.2 m/s, 151° | - | - |
| 1788614264 | 26.67° C | 47% | 1012.9 hPa | 0 mm | 11.18 m/s, 216° | - | - |
| 1788613964 | 26.67° C | 48% | 1012.9 hPa | 0 mm | 7.6 m/s, 162° | - | - |
| 1788613663 | 26.67° C | 48% | 1013.2 hPa | 0 mm | 12.52 m/s, 234° | - | - |
| 1788613364 | 27.22° C | 46% | 1012.9 hPa | 0 mm | 5.81 m/s, 282° | - | - |
| 1788613063 | 27.22° C | 48% | 1013.2 hPa | 0 mm | 14.31 m/s, 119° | - | - |
| 1788612763 | 27.22° C | 45% | 1013.2 hPa | 0 mm | 7.15 m/s, 168° | - | - |
| 1788612463 | 27.22° C | 46% | 1013.2 hPa | 0 mm | 23.69 m/s, 276° | - | - |
| 1788612163 | 27.22° C | 45% | 1013.2 hPa | 0 mm | 14.75 m/s, 192° | - | - |
| 1788611863 | 27.22° C | 46% | 1013.2 hPa | 0 mm | 9.83 m/s, 199° | - | - |
| 1788611563 | 27.22° C | 47% | 1013.2 hPa | 0 mm | 12.07 m/s, 112° | - | - |
| 1788611263 | 26.67° C | 48% | 1013.2 hPa | 0 mm | 16.54 m/s, 222° | - | - |
| 1788610963 | 26.67° C | 50% | 1012.9 hPa | 0 mm | 21.01 m/s, 266° | - | - |
| 1788610663 | 26.67° C | 48% | 1013.6 hPa | 0 mm | 22.35 m/s, 102° | - | - |
| 1788610362 | 27.22° C | 48% | 1013.2 hPa | 0 mm | 7.6 m/s, 150° | - | - |
* Rain latest hour (hover to see other rain measurements)
** Current wind speed in m/s (hover to see current wind gust speed)